This demonstration page uses our WeatherBlox Daily Observations layout. Learn more.

38.89511, -77.03637

Hourly Observations for January 17, 2018

Temp ( °F °C ) Dew Point ( °F °C ) Humidity (%) Winds ( mph kmh ) Pressure ( in mb ) Visibility ( mi km ) Precip ( " mm )
12:52 am 00:52 Cloudy with Light Snow 35 1.7 29 -1.7 78 78 NNW 12 19 30.33 1027 9 14.48406 0 0.0254
1:52 am 01:52 Cloudy 34 1.1 29 -1.7 82 82 NW 12 19 30.33 1027 8 12.87472 0 0.0254
2:52 am 02:52 Cloudy with Light Snow 33 0.6 28 -2.2 82 82 NNW 14 22 30.34 1027 4 6.43736 0 0.0254
3:02 am 03:02 Cloudy with Light Snow 33 0.6 28 -2.2 82 82 NNW 12 19 30.33 1027 2.5 4.02335 0 0.0254
3:11 am 03:11 Cloudy with Light Snow 32 0 28 -2.2 85 85 NW 10 17 30.33 1027 2.5 4.02335 0 0.0254
3:32 am 03:32 Cloudy with Light Snow 32 0 29 -1.7 88 88 NNW 13 20 30.33 1027 3 4.82802 0 0.0254
3:49 am 03:49 Cloudy with Light Snow 32 0 28 -2 87 87 NNW 13 20 30.33 1027 2 3.21868 0 0.0254
3:52 am 03:52 Cloudy with Light Snow 32 0 28 -2.2 85 85 NW 10 17 30.34 1027 1.5 2.41401 0.01 0.254
4:01 am 04:01 Cloudy with Light Snow 32 0 29 -1.7 88 88 NNW 13 20 30.33 1027 2 3.21868 0 0.0254
4:06 am 04:06 Cloudy with Light Snow 32 0 29 -1.7 88 88 NNW 12 19 30.33 1027 3 4.82802 0 0.0254
4:24 am 04:24 Cloudy with Light Snow 32 0 28 -2.2 85 85 NNW 10 17 30.36 1028 4 6.43736 0 0.0254
4:30 am 04:30 Cloudy with Light Snow 32 0 28 -2.2 85 85 NNW 9 15 30.36 1028 3 4.82802 0 0.0254
4:43 am 04:43 Cloudy with Light Snow 31 -0.6 28 -2.2 89 89 NNW 16 26 30.36 1028 2.5 4.02335 0 0.0254
4:48 am 04:48 Cloudy with Light Snow 30 -1 27 -3 86 86 NNW 16 26 30.36 1028 2.5 4.02335 0 0.0254
4:52 am 04:52 Cloudy with Light Snow 30 -1.1 26 -3.3 85 85 NW 14 22 30.35 1028 2 3.21868 0 0.0254
4:56 am 04:56 Cloudy with Light Snow 30 -1.1 27 -2.8 88 88 NW 14 22 30.36 1028 1.5 2.41401 0 0.0254
5:04 am 05:04 Cloudy with Light Snow 30 -1.1 26 -3.3 85 85 NW 14 22 30.36 1028 2.5 4.02335 0.01 0.254
5:08 am 05:08 Cloudy with Light Snow 29 -1.7 26 -3.3 89 89 NW 14 22 30.36 1028 3 4.82802 0.01 0.254
5:27 am 05:27 Windy with Snow Likely 28 -2.2 23 -5 81 81 NNW 22 35 30.39 1029 3 4.82802 0.01 0.254
5:32 am 05:32 Windy with Snow Likely 28 -2.2 24 -4.4 85 85 NNW 20 31 30.39 1029 1.75 2.816345 0.01 0.254
5:37 am 05:37 Cloudy with Light Snow 28 -2.2 24 -4.4 85 85 NNW 17 28 30.39 1029 1.5 2.41401 0.01 0.254
5:50 am 05:50 Cloudy with Light Snow 27 -3 23 -5 86 86 NNW 17 28 30.39 1029 2 3.21868 0.01 0.254
5:52 am 05:52 Windy with Snow Likely 27 -2.8 23 -5 85 85 NNW 22 35 30.39 1029 2 3.21868 0.01 0.254
5:59 am 05:59 Windy with Snow Likely 27 -2.8 22 -5.6 81 81 NNW 24 39 30.39 1029 3 4.82802 0.01 0.254
6:09 am 06:09 Windy with Snow Likely 26 -3.3 21 -6.1 81 81 NNW 20 31 30.39 1029 2.5 4.02335 0.01 0.254
6:43 am 06:43 Cloudy with Light Snow 25 -3.9 20 -6.7 81 81 NNW 17 28 30.39 1029 3 4.82802 0.01 0.254
6:52 am 06:52 Cloudy with Light Snow 25 -3.9 20 -6.7 81 81 NNW 15 24 30.39 1029 6 9.65604 0.01 0.254
7:52 am 07:52 Cloudy 25 -3.9 15 -9.4 66 66 NNW 18 30 30.4 1029 10 16.0934 0 0.0254
8:52 am 08:52 Cloudy 25 -3.9 16 -8.9 69 69 NNW 16 26 30.41 1030 10 16.0934 0 0
9:52 am 09:52 Cloudy 25 -3.9 12 -11.1 58 58 NW 16 26 30.42 1030 10 16.0934 0 0
10:52 am 10:52 Cloudy 25 -3.9 12 -11.1 58 58 NNW 20 31 30.42 1030 10 16.0934 0 0
11:52 am 11:52 Cloudy 26 -3.3 13 -10.6 57 57 NNW 14 22 30.39 1029 10 16.0934 0 0
12:52 pm 12:52 Cloudy 27 -2.8 12 -11.1 53 53 NNW 17 28 30.36 1028 10 16.0934 0 0
1:52 pm 13:52 Cloudy 26 -3.3 10 -12.2 51 51 N 18 30 30.35 1028 10 16.0934 0 0
2:52 pm 14:52 Cloudy 27 -2.8 9 -12.8 46 46 NNW 15 24 30.34 1027 10 16.0934 0 0
3:52 pm 15:52 Cloudy 26 -3.3 8 -13.3 46 46 NNW 20 31 30.32 1027 10 16.0934 0 0
4:52 pm 16:52 Mostly Cloudy 26 -3.3 8 -13.3 46 46 NNW 20 31 30.32 1027 10 16.0934 0 0
5:52 pm 17:52 Mostly Cloudy 25 -3.9 8 -13.3 48 48 NW 14 22 30.33 1027 10 16.0934 0 0
6:52 pm 18:52 Clear 24 -4.4 8 -13.3 50 50 NNW 16 26 30.32 1027 10 16.0934 0 0
7:52 pm 19:52 Mostly Clear 24 -4.4 8 -13.3 50 50 NNW 15 24 30.32 1027 10 16.0934 0 0
8:52 pm 20:52 Partly Cloudy 23 -5 8 -13.3 53 53 NNW 15 24 30.32 1027 10 16.0934 0 0
9:52 pm 21:52 Mostly Cloudy 22 -5.6 8 -13.3 55 55 NNW 16 26 30.32 1027 10 16.0934 0 0
10:52 pm 22:52 Mostly Cloudy 21 -6.1 7 -13.9 54 54 NNW 18 30 30.31 1026 10 16.0934 0 0
11:52 pm 23:52 Partly Cloudy 20 -6.7 7 -13.9 57 57 NW 13 20 30.3 1026 10 16.0934 0 0

Powered by AerisWeather